Home > Weather > Santa Rosa > Past weeks

Flag for U.S.A. Weather for the Past 2 Weeks in Santa Rosa, California, U.S.A.

Now
71 °F

Scattered clouds.


Feels Like: 77 °F
Forecast: 48 / 75 °F
Wind: 6 mph from Southeast

Location: Santa Rosa Sonoma County Airport

Current Time: Feb 13, 2016 at 6:43:32 PM

Latest Report: Feb 13, 2016 at 4:53 PM


Visibility: 10 mi

Pressure: 30.16 "Hg

Humidity: 53%

Dew point: 53 °F

Location of Santa RosaLocation

Historic Weather in Santa Rosa — Graph

°F

Santa Rosa Temperature Yesterday

Maximum temperature yesterday: 73 °F (at 2:53 PM)
Minimum temperature yesterday: 43 °F (at 5:53 AM)
Average temperature yesterday: 56 °F

High & Low Weather Summary for the Past Weeks

 TemperatureHumidityPressure
High74 °F (Feb 8, 2:53 PM)100% (Feb 4, 11:57 PM)30.43 "Hg (Feb 4, 11:57 PM)
Low36 °F (Feb 5, 5:53 AM)29% (Feb 1, 2:53 PM)29.74 "Hg (Jan 31, 1:53 PM)
Average52 °F77%30.19 "Hg
* Reported Jan 29 4:53 PM — Feb 13 4:53 PM, Santa Rosa, Weather by CustomWeather, © 2016

Note: Actual official high and low records may vary slightly from our data, if they occured in-between our weather recording intervals... More about our weather records

Advertising

Santa Rosa Weather History for the Previous 24 Hours

 ConditionsComfort  
Time TempWeatherWind HumidityBarometerVisibility
4:53 PM
Sat, Feb 13
71 °FScattered clouds.6 mph53%30.16 "Hg10 mi
3:53 PM71 °FScattered clouds.7 mph53%30.16 "Hg9 mi
2:53 PM73 °FScattered clouds.3 mph41%30.16 "Hg10 mi
1:53 PM72 °FPassing clouds.5 mph44%30.18 "Hg10 mi
12:53 PM69 °FPassing clouds.3 mph53%30.21 "Hg10 mi
11:53 AM66 °FSunny.No wind59%30.25 "Hg10 mi
10:53 AM63 °FSunny.7 mph65%30.26 "Hg10 mi
9:53 AM60 °FSunny.7 mph72%30.26 "Hg10 mi
8:53 AM50 °FSunny.5 mph96%30.26 "Hg10 mi
7:53 AM43 °FSunny.No wind97%30.24 "Hg10 mi
6:53 AM41 °FFog.5 mph100%30.23 "Hg10 mi
5:53 AM42 °FFog.6 mph100%30.22 "Hg1 mi
4:53 AM43 °FFog.No wind100%30.20 "Hg1 mi
3:53 AM44 °FFog.3 mph100%30.21 "Hg1 mi
2:53 AM44 °FFog.No wind100%30.19 "Hg1 mi
1:53 AM49 °FFog.No wind97%30.19 "Hg1 mi
12:53 AM50 °FClear.5 mph96%30.18 "Hg8 mi
11:53 PM
Fri, Feb 12
52 °FClear.No wind93%30.18 "Hg10 mi
10:53 PM55 °FClear.No wind90%30.18 "Hg10 mi
9:53 PM57 °FClear.3 mph87%30.18 "Hg10 mi
8:53 PM57 °FClear.No wind87%30.16 "Hg10 mi
7:53 PM58 °FClear.No wind87%30.16 "Hg10 mi
6:53 PM61 °FClear.5 mph81%30.15 "Hg10 mi
Weather by CustomWeather, © 2016

See weather overviewHow to use our weather pages